SCP
0 0 0 0 0 0 0 0 0 0 0 0 0 0 0 0 0 0 0 0 0 0 0 0 0 0 0 0 0 0 0 0 0 0 0 0 0 0 0 0 0 0 0 0 0 0 0 0 0
0 0 0 0 0 0 0 0 0 0 0 0 0 0 0 0 0 0 0 0 0 0 0 0 0 0 0 0 0 0 0 0 0 0 0 0 0 0 0 0 0 0 0 0 0 0 0 0 0
0 0 0 0 0 0 0 0 0 0 0 0 0 0 0 0 0 0 0 0 0 0 0 0 0 0 0 0 0 0 0 0 0 0 0 0 0 0 0 0 0 0 0 0 0 0 0 0 0
0 0 0 0 0 0 0 0 0 0 0 0 0 0 0 0 0 0 0 0 0 0 0 0 0 0 0 0 0 0 0 0 0 0 0 0 0 0 0 0 0 0 0 0 0 0 0 0 0
0 0 0 0 0 0 0 0 0 0 0 0 0 0 0 0 0 0 0 0 0 0 0 0 0 0 0 0 0 0 0 0 0 0 0 0 0 0 0 0 0 0 0 0 0 0 0 0 0
0 0 0 0 0 0 0 -0 0 0 0 0 0 0 0 0 0 0 0 0 0 0 0 0 0 0 0 0 0 0 0 0 0 0 0 0 0 0 0 0 0 0 0 0 0 0 0 0 0
0 0 0 0 0 0 0 0 0 0 0 0 0 0 0 0 0 0 0 0 0 0 0 0 0 0 0 0 0 0 0 0 0 0 0 0 0 0 0 0 0 0 0 0 0 0 0 0 0
0 0 -0 -0 0 0 0 0 0 0 0 0 0 0 0 0 0 0 0 0 0 0 0 0 0 0 0 0 0 0 0 0 0 0 0 0 0 0 0 0 0 0 0 0 0 0 0 0 0
0 0 0 0 0 0 0 0 0 0 0 0 0 0 0 0 0 0 0 0 0 0 0 0 0 0 0 0 0 0 0 0 0 0 0 0 0 0 0 0 0 0 0 0 0 0 0 0 0
0 0 0 0 0 0 0 0 0 0 0 0 0 0 0 0 0 0 0 0 0 0 0 0 0 0 0 0 0 0 0 0 0 0 0 0 0 0 0 0 0 0 0 0 0 0 0 0 0
0 0 0 0 0 0 0 0 0 0 0 0 0 0 0 0 0 0 0 0 0 0 0 0 0 0 0 0 0 0 0 0 0 0 0 0 0 0 0 0 0 0 0 0 0 0 0 0 0
0 0 0 0 0 0 0 0 0 0 0 0 0 0 0 0 0 0 0 0 0 0 0 0 0 0 0 0 0 0 0 0 0 0 0 0 0 0 0 0 0 0 0 0 0 0 0 0 0
0 0 0 0 0 0 0 0 0 0 0 0 0 0 0 0 0 0 0 0 0 0 0 0 0 0 0 0 0 0 0 0 0 0 0 0 0 0 0 0 0 0 0 0 0 0 0 0 0
0 0 0 0 0 0 0 0 0 0 0 0 0 0 0 0 0 0 0 0 0 0 0 0 0 0 0 0 0 0 0 0 0 0 0 0 0 0 0 0 0 0 0 0 0 0 0 0 0
0 0 0 0 0 0 0 0 0 0 0 0 0 0 0 0 0 0 0 0 0 0 0 0 0 0 0 0 0 0 0 0 0 0 0 0 0 0 0 0 0 0 0 0 0 0 0 0 0
0 0 0 0 0 0 0 0 0 0 0 0 0 0 0 0 0 0 0 0 0 0 0 0 0 0 0 0 0 0 0 0 0 0 0 0 0 0 0 0 0 0 0 0 0 0 0 0 0
0 0 0 0 0 0 0 0 0 0 0 0 0 0 0 0 0 0 0 0 0 0 0 0 0 0 0 0 0 0 0 0 0 0 0 0 0 0 0 0 0 0 0 0 0 0 0 0 0
0 0 0 0 0 0 0 0 0 0 0 0 0 0 0 0 0 0 0 0 0 0 0 0 0 0 0 0 0 0 0 0 0 0 0 0 0 0 0 0 0 0 0 0 0 0 0 0 0
0 0 0 0 0 0 0 0 0 0 0 0 0 0 0 0 0 0 0 0 0 0 0 0 0 0 0 0 0 0 0 0 0 0 0 0 0 0 0 0 0 0 0 0 0 0 0 0 0
0 0 0 0 0 0 0 0 0 0 0 0 0 0 0 0 0 0 0 0 0 0 0 0 0 0 0 0 0 0 0 0 0 0 0 0 0 0 0 0 0 0 0 0 0 0 0 0 0
0 0 0 0 0 0 0 0 0 0 0 0 0 0 0 0 0 0 0 0 0 0 0 0 0 0 0 0 0 0 0 0 0 0 0 0 0 0 0 0 0 0 0 0 0 0 0 0 0
0 0 0 0 0 0 0 0 0 0 0 0 0 0 0 0 0 0 0 0 0 0 0 0 0 0 0 0 0 0 0 0 0 0 0 0 0 0 0 0 0 0 0 0 0 0 0 0 0
0 0 0 0 0 0 0 0 0 0 0 0 0 0 0 0 0 0 0 0 0 0 0 0 0 0 0 0 0 0 0 0 0 0 0 0 0 0 0 0 0 0 0 0 0 0 0 0 0
0 0 0 0 0 0 0 0 0 0 0 0 0 0 0 0 0 0 0 0 0 0 0 0 0 0 0 0 0 0 0 0 0 0 0 0 0 0 0 0 0 0 0 0 0 0 0 0 0
0 0 0 0 0 0 0 0 0 0 0 0 0 0 0 0 0 0 0 0 0 0 0 0 0 0 0 0 0 0 0 0 0 0 0 0 0 0 0 0 0 0 0 0 0 0 0 0 0
0 0 0 0 0 0 0 0 0 0 0 0 0 0 0 0 0 0 0 0 0 0 0 0 0 0 0 0 0 0 0 0 0 0 0 0 0 0 0 0 0 0 0 0 0 0 0 0 0
0 0 0 0 0 0 0 0 0 0 0 0 0 0 0 0 0 0 0 0 0 0 0 0 0 0 0 0 0 0 0 0 0 0 0 0 0 0 0 0 0 0 0 0 0 0 0 0 0
0 0 0 0 0 0 0 0 0 0 0 0 0 0 0 0 0 0 0 0 0 0 0 0 0 0 0 0 0 0 0 0 0 0 0 0 0 0 0 0 0 0 0 0 0 0 0 0 0
0 0 0 0 0 0 0 0 0 0 0 0 0 0 0 0 0 0 0 0 0 0 0 0 0 0 0 0 0 0 0 0 0 0 0 0 0 0 0 0 0 0 0 0 0 0 0 0 0
0 0 0 0 0 0 0 0 0 0 0 0 0 0 0 0 0 0 0 0 0 0 0 0 0 0 0 0 0 0 0 0 0 0 0 0 0 0 0 0 0 0 0 0 0 0 0 0 0
Wind_Speed
2 2 3 4 5 4 2 2 2 3 2 2 1 3 4 5 7 6 4 6 7 12 17 20 20 18 17 15 14 13 12 11 10 9 8 8 8 8 8 8 9 9 9 9 10 10 10 10 10
2 3 4 4 4 4 3 1 2 4 4 1 2 4 4 3 3 3 3 7 8 12 16 17 20 19 17 16 14 13 12 11 10 9 9 8 8 8 8 8 8 8 8 8 9 9 9 9 9
2 4 4 4 4 2 1 2 4 4 2 3 2 3 4 4 0 1 4 7 10 13 16 16 20 19 18 16 15 14 13 12 11 10 9 8 8 7 7 7 7 7 7 7 7 7 8 8 8
3 4 4 4 3 0 2 4 5 4 1 3 4 4 3 1 2 4 3 8 11 13 16 17 20 20 18 17 16 14 13 12 11 10 9 8 8 7 7 7 6 6 6 6 6 6 6 6 7
3 3 4 4 2 0 2 4 3 4 2 1 4 6 6 3 2 2 2 8 10 13 15 16 20 20 18 17 16 15 14 13 11 10 9 8 8 7 7 6 6 5 5 5 5 5 5 5 5
2 3 5 4 3 2 3 2 3 4 4 3 4 7 5 4 2 2 2 7 9 12 14 15 19 19 18 17 16 15 14 13 12 11 10 9 8 7 7 6 5 5 4 4 3 3 3 3 3
1 2 4 4 5 4 2 1 4 6 8 6 4 7 5 4 4 2 2 6 8 11 13 13 16 16 17 16 16 15 14 13 12 11 10 9 8 8 7 6 5 5 4 3 2 2 1 1 1
2 2 4 5 6 6 2 2 4 8 9 3 3 7 7 5 4 0 3 6 8 10 12 13 14 14 14 14 15 14 14 13 12 11 10 8 8 8 7 7 6 5 4 4 3 2 2 1 1
3 5 6 5 6 5 2 6 5 4 7 5 5 7 7 4 1 2 4 7 8 10 12 13 13 13 12 11 12 13 12 12 11 10 9 8 7 7 6 6 6 6 6 5 5 5 4 4 3
3 5 6 3 5 7 7 7 8 6 8 7 6 5 3 3 3 5 6 8 10 12 13 12 13 12 11 8 9 9 9 9 9 8 9 7 6 5 4 5 6 6 6 7 7 6 6 6 4
3 5 4 4 5 6 7 7 4 6 7 7 10 12 9 6 5 6 7 7 9 10 12 12 13 12 11 8 7 6 5 6 8 9 8 6 5 4 5 4 6 7 6 7 5 7 6 6 5
4 5 5 4 1 4 7 6 5 5 6 8 8 9 8 6 5 5 6 6 6 8 11 12 13 12 11 9 8 7 6 5 5 7 8 6 5 5 5 5 6 5 5 6 6 6 7 8 8
5 4 3 4 6 7 7 7 5 3 5 6 5 5 6 6 6 5 4 4 5 8 10 12 13 13 11 10 7 7 7 7 7 6 8 8 7 7 7 6 6 7 6 7 7 8 9 9 10
3 5 8 7 5 2 3 2 2 1 4 4 5 7 8 8 8 7 5 2 3 6 8 9 12 12 12 10 9 8 7 7 7 7 9 10 8 8 7 8 7 8 8 8 8 10 9 9 9
3 7 5 1 1 0 3 3 2 3 3 5 7 9 10 11 10 9 7 4 1 3 5 8 9 11 12 11 10 7 7 7 7 7 9 10 10 9 9 8 8 8 9 10 9 11 9 9 10
4 5 3 2 1 1 5 2 4 3 3 6 8 9 11 12 13 11 10 7 4 3 4 5 5 8 9 9 8 6 6 7 7 7 7 10 11 11 9 9 9 10 8 8 9 9 9 10 10
4 4 3 1 1 2 4 4 2 2 2 5 8 9 11 12 14 14 12 10 7 6 5 5 5 6 6 7 6 6 6 6 6 6 7 9 11 11 10 10 10 10 8 9 9 10 10 11 12
3 4 4 5 1 4 5 5 2 2 2 7 8 9 11 13 13 13 13 11 10 8 7 6 5 3 4 4 4 4 5 6 6 7 8 10 10 11 11 10 12 11 9 9 10 12 12 11 11
4 6 8 5 2 5 5 5 1 2 5 8 8 9 11 12 12 12 12 12 11 10 9 7 5 4 3 2 2 3 4 5 5 6 9 10 11 11 11 10 11 11 10 12 14 12 13 12 10
6 8 7 3 1 4 5 3 2 4 6 6 7 8 9 10 11 12 12 12 12 11 9 8 6 4 3 1 1 2 3 4 5 5 7 9 10 11 10 12 11 11 10 13 14 13 11 10 9
7 8 6 4 3 3 4 4 6 6 6 6 6 7 8 8 10 10 11 12 11 11 9 7 6 4 2 1 1 1 2 3 4 5 5 7 9 11 11 13 12 12 12 11 13 13 14 12 10
6 4 5 4 6 2 3 3 8 9 8 7 7 7 7 8 9 9 10 10 10 9 7 7 6 5 3 1 1 3 3 5 5 5 5 7 8 10 10 12 13 13 11 13 13 13 12 13 12
1 2 2 3 5 5 4 6 7 9 11 10 8 7 7 7 8 8 8 8 8 8 7 6 6 6 4 2 1 3 5 5 6 6 8 8 7 8 10 11 11 12 11 13 14 14 14 12 13
4 4 3 2 4 6 3 5 5 7 10 11 10 9 8 7 7 7 7 7 7 7 6 6 6 6 5 3 3 4 6 7 8 9 8 7 7 7 9 9 10 11 11 12 13 14 15 14 15
5 5 4 5 5 2 3 5 3 3 3 7 11 10 8 7 6 6 6 6 6 6 6 5 6 5 5 4 4 5 6 8 9 9 9 9 8 8 9 9 10 10 11 12 13 13 14 15 17
5 5 5 4 3 1 4 6 1 4 2 4 7 9 8 6 5 5 5 4 4 5 5 5 5 5 5 5 6 6 7 6 6 9 9 10 9 9 11 11 12 13 13 13 13 12 14 14 16
5 4 2 3 2 5 5 4 2 4 5 6 8 8 7 6 5 4 4 3 3 4 5 5 5 5 6 7 7 8 8 8 9 10 10 9 10 10 12 13 13 13 14 14 14 12 15 15 15
2 4 4 5 5 6 5 6 5 9 9 8 8 8 7 5 4 4 3 2 3 3 4 4 5 6 7 7 7 7 9 10 10 11 12 12 13 12 13 14 14 14 14 15 14 14 14 16 15
6 5 5 3 4 5 5 3 2 6 8 9 8 7 6 5 4 3 2 2 2 3 4 5 6 7 8 8 9 10 10 11 11 11 12 13 13 14 14 15 15 15 15 15 15 16 16 17 17
5 6 7 6 6 5 6 4 5 4 5 6 7 6 5 4 3 2 1 1 2 4 5 6 7 8 8 9 10 11 12 12 12 13 14 14 15 14 15 15 16 16 16 16 16 17 17 18 18
Wind_Direction
192 218 227 226 213 216 191 89 2 3 7 22 326 271 307 332 343 355 58 157 157 162 168 172 174 171 170 169 167 162 159 156 150 143 137 130 123 116 109 101 94 87 82 79 75 73 73 71 70
217 223 224 226 228 205 149 81 1 2 2 329 228 239 261 288 297 325 105 155 168 166 170 173 172 173 173 172 171 167 165 162 158 153 148 141 134 126 117 107 98 91 85 81 77 74 74 74 73
202 248 234 208 224 229 113 35 356 349 313 251 234 245 289 321 273 34 64 155 170 170 174 171 172 175 176 175 175 172 170 168 165 161 156 151 143 133 123 114 105 98 91 85 80 77 74 75 74
222 212 220 221 188 102 339 357 346 319 220 225 275 269 247 285 1 46 87 165 173 172 176 171 175 177 178 178 177 175 174 173 170 168 164 160 153 142 132 124 116 108 102 93 85 80 76 76 75
234 232 206 208 209 282 321 339 320 308 316 262 274 293 293 114 84 54 140 174 179 174 177 173 178 180 180 181 179 178 177 178 175 176 173 170 165 155 146 140 133 125 117 106 93 83 78 75 75
209 235 228 229 243 296 303 303 284 297 310 294 267 287 295 103 88 46 166 183 184 177 178 174 180 183 183 184 182 181 182 182 181 183 181 178 175 168 162 158 154 148 137 124 111 96 81 72 71
274 253 256 265 278 288 321 322 289 313 303 302 280 281 283 118 49 21 177 182 183 180 181 179 181 186 187 187 186 185 186 186 186 188 188 187 184 182 176 174 174 171 167 157 146 132 114 83 67
324 260 248 262 278 292 320 273 287 297 304 334 258 275 299 37 26 46 166 180 184 186 188 186 186 187 188 189 188 188 188 190 191 191 190 189 192 195 187 189 190 192 193 195 200 204 212 218 248
255 257 261 273 281 295 301 291 299 277 279 267 252 286 338 2 322 200 185 187 190 193 195 193 192 189 191 191 186 188 189 192 194 194 185 188 204 203 198 201 196 211 215 219 225 228 235 238 228
240 262 274 282 280 298 301 294 305 278 276 281 278 286 312 296 265 238 223 207 199 197 196 196 197 192 192 189 188 194 195 194 200 202 195 201 206 209 214 170 206 226 235 237 240 243 239 241 235
247 269 284 267 274 287 291 294 287 284 297 327 321 322 323 302 277 262 251 235 216 204 196 200 199 197 195 191 194 193 195 198 203 206 199 197 201 204 215 212 206 220 228 237 230 239 240 246 250
261 266 272 281 272 275 284 293 285 272 310 340 322 317 320 318 309 290 275 257 226 208 200 200 200 200 202 199 197 199 196 198 201 202 200 198 205 217 221 227 231 233 231 238 242 247 246 249 250
254 274 267 268 277 276 275 268 280 291 339 342 342 349 354 352 347 338 308 272 229 210 201 200 201 202 203 207 206 207 208 207 206 203 207 212 217 224 226 232 234 239 243 242 245 248 251 251 251
295 279 285 290 278 234 255 266 229 17 7 9 30 34 27 20 11 9 4 322 229 208 201 197 202 204 204 208 212 214 217 217 221 215 219 221 228 233 234 240 240 243 243 247 249 252 255 255 253
273 283 277 182 275 178 269 243 165 42 358 36 53 52 45 37 31 25 18 12 15 185 189 191 199 205 208 213 218 223 224 225 226 227 229 228 233 238 238 244 245 246 246 247 249 254 256 258 257
244 257 246 132 9 348 274 260 101 44 16 56 62 59 55 48 41 36 33 37 56 104 150 171 184 202 209 215 220 224 231 233 234 234 236 235 238 242 245 247 250 250 250 247 248 251 251 252 253
227 261 286 278 99 322 286 276 79 22 46 87 78 68 62 55 44 40 41 48 59 77 103 135 167 191 202 213 222 232 238 241 244 242 242 242 243 244 245 250 254 255 250 248 250 252 253 257 258
269 281 281 289 14 305 280 273 316 23 124 109 95 81 69 58 47 44 48 56 63 71 82 99 126 158 177 195 216 229 241 246 248 247 246 248 246 245 246 251 255 257 251 249 249 251 253 256 264
276 270 281 291 346 293 279 284 297 124 141 121 104 90 79 71 64 58 57 60 66 69 74 82 96 115 144 165 200 226 239 245 246 249 255 254 254 251 248 252 257 254 250 250 253 255 256 255 256
237 262 273 269 163 285 292 277 144 145 141 122 110 98 90 84 73 63 60 60 61 63 66 73 81 97 128 166 210 253 273 275 274 266 262 259 257 255 253 253 255 255 253 254 255 254 255 256 245
237 253 274 291 301 217 272 187 157 147 143 132 119 107 97 87 81 72 65 62 61 58 56 61 68 78 92 150 226 253 262 268 263 268 268 266 263 259 255 255 257 257 254 254 254 251 247 250 247
256 241 250 263 282 244 273 220 169 168 169 162 146 128 112 101 91 81 72 65 59 57 58 61 66 69 74 112 263 277 286 291 299 299 288 283 272 265 261 260 259 260 257 256 255 251 248 248 251
248 90 210 255 259 255 215 243 166 173 187 181 163 144 127 114 101 89 78 73 66 61 58 59 62 61 58 42 331 297 295 299 301 300 293 292 284 272 266 264 263 261 258 257 257 256 251 244 245
139 145 142 193 228 236 190 237 190 180 198 182 167 154 143 128 114 101 94 87 76 66 59 54 53 49 38 19 345 317 310 308 306 305 303 300 293 285 276 270 265 263 261 260 258 257 254 250 249
197 241 246 221 215 213 125 245 241 129 180 186 171 160 149 139 130 116 106 91 75 61 51 45 40 33 21 4 343 326 314 308 303 306 304 301 297 293 291 284 275 271 265 263 262 260 257 254 252
198 249 276 291 290 291 191 240 130 101 122 160 165 157 150 148 138 123 108 94 76 57 43 34 25 14 2 348 336 325 317 307 303 303 300 296 293 293 295 290 282 278 275 270 264 262 258 256 254
180 205 322 289 285 271 237 238 213 148 153 156 158 159 159 155 148 134 118 98 72 49 31 15 4 356 348 337 326 321 318 311 306 302 298 293 291 293 292 290 286 282 278 274 271 265 263 260 257
312 152 175 226 258 262 253 239 212 178 175 167 168 170 163 158 153 142 125 95 60 32 10 356 348 339 331 326 323 314 311 309 305 300 298 296 295 294 292 291 289 286 282 278 273 270 267 267 264
164 182 209 220 269 273 274 251 109 173 171 176 177 172 165 162 157 150 129 83 32 0 347 342 336 328 324 322 318 313 312 309 305 300 299 298 296 294 292 291 289 287 285 283 279 273 272 270 269
233 215 199 227 221 236 275 274 107 160 162 179 174 166 162 155 148 143 122 28 347 340 337 334 328 324 322 318 313 311 309 306 303 302 302 300 297 295 293 291 289 287 285 283 281 280 277 275 273